Location: Emblem
(62.4273°N, 6.4710°E)
Time: 05:54:24
(UTC+02:00)

Transit 2A - Pass Details

Date: 04 March 2024
Orbit: 596 x 956 km, 66.7° (Epoch: 24 April)

Event Time Altitude Azimuth Distance (km) Brightness Sun altitude
Rises 19:35:09 0° 220° (SW) 2,836 9.4 -11.1°
Reaches altitude 10° 19:37:22 10° 217° (SW) 1,941 8.5 -11.3°
Maximum altitude 19:41:37 60° 138° (SE) 704 5.6 -11.8°
Drops below altitude 10° 19:46:07 10° 59° (ENE) 2,043 7.8 -12.3°
Enters shadow 19:46:10 10° 58° (ENE) 2,068 7.8 -12.3°
